GW5094 Weather Reports


time (UTC)temp
C
wind
direction
speed
KPH
gust
KPH
rain 1hr
cm
rain 24hr
cm
rain mn
cm
humidity
%
barometer
mb
20260507065505 13 91 1.6 4.8 0.00 0.00 0.00 87 1017.7
20260507065006 13 114 3.2 4.8 0.00 0.00 0.00 87 1017.7
20260507064516 13 137 1.6 4.8 0.00 0.00 0.00 87 1017.7
20260507064005 13 94 1.6 6.4 0.00 0.00 0.00 87 1017.8
20260507063505 13 90 1.6 6.4 0.00 0.00 0.00 87 1017.7
20260507063016 13 86 4.8 6.4 0.00 0.00 0.00 87 1017.7
20260507062504 13 94 1.6 4.8 0.00 0.00 0.00 87 1017.7
20260507062011 14 109 1.6 3.2 0.00 0.00 0.00 87 1017.8
20260507061505 14 130 1.6 3.2 0.00 0.00 0.00 87 1017.8
20260507061003 14 130 1.6 3.2 0.00 0.00 0.00 86 1017.8
20260507060503 13 130 1.6 3.2 0.00 0.00 0.00 86 1017.9
20260507060005 13 130 0.0 3.2 0.00 0.00 0.00 86 1017.9
20260507055504 13 130 0.0 3.2 0.00 0.00 0.00 86 1017.9
20260507055007 13 130 1.6 3.2 0.00 0.00 0.00 86 1018.0
20260507054513 13 130 1.6 3.2 0.00 0.00 0.00 86 1018.0
20260507054005 13 130 1.6 1.6 0.00 0.00 0.00 86 1017.9
20260507053504 13 130 1.6 3.2 0.00 0.00 0.00 86 1017.9
20260507053018 14 130 1.6 3.2 0.00 0.00 0.00 86 1017.9
20260507052507 14 192 1.6 3.2 0.00 0.00 0.00 87 1018.0
20260507052008 14 192 0.0 3.2 0.00 0.00 0.00 87 1018.0
20260507051527 14 192 0.0 1.6 0.00 0.00 0.00 87 1017.9
20260507051003 14 192 0.0 0.0 0.00 0.00 0.00 87 1017.9
20260507050507 14 192 0.0 3.2 0.00 0.00 0.00 87 1018.0
20260507050006 14 192 0.0 3.2 0.00 0.00 0.00 87 1018.0
20260507045503 14 192 0.0 0.0 0.00 0.00 0.00 87 1017.9
20260507045007 14 192 0.0 3.2 0.00 0.00 0.00 87 1017.9
20260507044508 14 192 0.0 3.2 0.00 0.00 0.00 87 1017.9
20260507044003 14 192 0.0 3.2 0.00 0.00 0.00 87 1017.9
20260507043503 14 192 0.0 3.2 0.00 0.00 0.00 87 1017.9
20260507043018 14 192 0.0 3.2 0.00 0.00 0.00 86 1017.8
20260507042505 14 192 0.0 3.2 0.00 0.00 0.00 86 1017.7
20260507042008 14 192 0.0 3.2 0.00 0.00 0.00 86 1017.7
20260507041516 14 192 0.0 3.2 0.00 0.00 0.00 86 1017.7
20260507041004 15 192 0.0 3.2 0.00 0.00 0.00 86 1017.7
20260507040505 15 192 0.0 3.2 0.00 0.00 0.00 86 1017.6
20260507040002 15 177 0.0 3.2 0.00 0.00 0.00 85 1017.6
20260507035502 15 236 0.0 3.2 0.00 0.00 0.00 85 1017.5
20260507035002 15 236 0.0 4.8 0.00 0.00 0.00 85 1017.4
20260507034505 15 236 1.6 6.4 0.00 0.00 0.00 85 1017.3
20260507034001 15 232 1.6 6.4 0.00 0.00 0.00 84 1017.4
20260507033501 15 226 3.2 6.4 0.00 0.00 0.00 84 1017.3
20260507033010 15 206 4.8 6.4 0.00 0.00 0.00 83 1017.2
20260507032459 15 185 3.2 6.4 0.00 0.00 0.00 83 1017.1
20260507032002 15 206 1.6 4.8 0.00 0.00 0.00 83 1017.1
20260507031503 15 206 3.2 4.8 0.00 0.00 0.00 83 1017.0
20260507031003 15 211 1.6 4.8 0.00 0.00 0.00 83 1016.9
20260507030503 15 211 3.2 4.8 0.00 0.00 0.00 82 1016.8
20260507030003 15 230 1.6 6.4 0.00 0.00 0.00 82 1016.8
20260507025458 15 212 3.2 9.7 0.00 0.00 0.00 81 1016.7
20260507025002 16 254 4.8 9.7 0.00 0.00 0.00 80 1016.7
20260507024503 16 264 3.2 11.3 0.00 0.00 0.00 1016.8
20260507024006 16 244 8.0 11.3 0.00 0.00 0.00 77 1016.7
20260507023503 16 211 6.4 9.7 0.00 0.00 0.00 77 1016.7
20260507023006 16 213 6.4 11.3 0.00 0.00 0.00 76 1016.6
20260507022503 16 227 4.8 11.3 0.00 0.00 0.00 74 1016.5
20260507022003 16 220 6.4 14.5 0.00 0.00 0.00 73 1016.5
20260507021504 16 188 6.4 14.5 0.00 0.00 0.00 73 1016.5
20260507021002 16 214 3.2 12.9 0.00 0.00 0.00 73 1016.5
20260507020502 17 215 6.4 11.3 0.00 0.00 0.00 74 1016.4
20260507020006 17 211 6.4 12.9 0.00 0.00 0.00 74 1016.5
20260507015501 17 263 6.4 14.5 0.00 0.00 0.00 75 1016.5
20260507015005 17 217 8.0 14.5 0.00 0.00 0.00 75 1016.5
20260507014507 17 224 8.0 14.5 0.00 0.00 0.00 74 1016.4
20260507014003 17 231 6.4 12.9 0.00 0.00 0.00 73 1016.4
20260507013502 17 219 8.0 14.5 0.00 0.00 0.00 73 1016.4
20260507013003 17 242 6.4 16.1 0.00 0.00 0.00 71 1016.4
20260507012503 17 271 9.7 16.1 0.00 0.00 0.00 70 1016.4
20260507012003 17 234 9.7 16.1 0.00 0.00 0.00 70 1016.4
20260507011505 18 214 6.4 17.7 0.00 0.00 0.00 70 1016.4
20260507011002 18 258 8.0 17.7 0.00 0.00 0.00 69 1016.4
20260507010503 18 234 9.7 16.1 0.00 0.00 0.00 69 1016.5
20260507010004 18 273 11.3 17.7 0.00 0.00 0.00 68 1016.5
20260507005503 18 273 9.7 17.7 0.00 0.00 0.00 69 1016.5
20260507005003 18 200 8.0 17.7 0.00 0.00 0.00 68 1016.5
20260507004504 18 269 12.9 17.7 0.00 0.00 0.00 67 1016.6
20260507004003 18 236 9.7 19.3 0.00 0.00 0.00 66 1016.6
20260507003503 18 269 11.3 19.3 0.00 0.00 0.00 66 1016.5
20260507003004 18 237 9.7 25.7 0.00 0.00 0.00 66 1016.6
20260507002503 18 257 12.9 25.7 0.00 0.00 0.00 64 1016.6
20260507002003 18 261 16.1 22.5 0.00 0.00 0.00 64 1016.7
20260507001502 18 270 12.9 25.7 0.00 0.00 0.00 64 1016.7
20260507001003 19 257 16.1 25.7 0.00 0.00 0.00 63 1016.7
20260507000503 19 252 16.1 22.5 0.00 0.00 0.00 63 1016.7
20260507000007 19 242 14.5 25.7 0.00 0.00 0.00 62 1016.6
20260506235505 19 264 14.5 25.7 0.00 0.00 0.00 63 1016.6
20260506235003 19 252 19.3 24.1 0.00 0.00 0.00 62 1016.7
20260506234503 19 235 17.7 27.4 0.00 0.00 0.00 60 1016.6
20260506234001 19 265 14.5 29.0 0.00 0.00 0.00 60 1016.6
20260506233502 20 236 19.3 29.0 0.00 0.00 0.00 60 1016.7
20260506233003 20 266 17.7 27.4 0.00 0.00 0.00 59 1016.6
20260506232502 20 284 16.1 27.4 0.00 0.00 0.00 60 1016.6
20260506232002 20 252 17.7 27.4 0.00 0.00 0.00 60 1016.7
20260506231506 20 293 14.5 25.7 0.00 0.00 0.00 61 1016.7
20260506231001 20 285 17.7 27.4 0.00 0.00 0.00 61 1016.8
20260506230502 20 271 17.7 27.4 0.00 0.00 0.00 59 1016.8
20260506230007 20 275 16.1 25.7 0.00 0.00 0.00 62 1016.9
20260506225502 20 272 17.7 25.7 0.00 0.00 0.00 62 1016.9
20260506225002 20 260 16.1 25.7 0.00 0.00 0.00 63 1017.0
20260506224503 19 257 14.5 24.1 0.00 0.00 0.00 61 1017.1
20260506224004 20 275 14.5 25.7 0.00 0.00 0.00 63 1017.2
20260506223501 20 260 16.1 25.7 0.00 0.00 0.00 63 1017.3
20260506223006 20 282 12.9 25.7 0.00 0.00 0.00 65 1017.3
20260506222502 19 244 17.7 24.1 0.00 0.00 0.00 64 1017.5
20260506222003 19 250 14.5 25.7 0.00 0.00 0.00 64 1017.6
20260506221509 20 238 16.1 25.7 0.00 0.00 0.00 63 1017.7
20260506221002 20 265 16.1 24.1 0.00 0.00 0.00 61 1017.8
20260506220502 20 248 16.1 24.1 0.00 0.00 0.00 63 1017.8
20260506220022 20 260 11.3 22.5 0.00 0.00 0.00 62 1017.8
20260506215503 20 257 16.1 27.4 0.00 0.00 0.00 61 1017.9
20260506215002 21 217 12.9 27.4 0.00 0.00 0.00 62 1017.9
20260506214507 20 284 14.5 22.5 0.00 0.00 0.00 63 1018.0
20260506214001 20 281 14.5 22.5 0.00 0.00 0.00 63 1018.0
20260506213503 20 265 16.1 25.7 0.00 0.00 0.00 63 1018.1
20260506213006 20 255 16.1 25.7 0.00 0.00 0.00 61 1018.1
20260506212503 20 250 16.1 20.9 0.00 0.00 0.00 60 1018.1
20260506212003 20 290 11.3 20.9 0.00 0.00 0.00 62 1018.2
20260506211510 20 223 12.9 20.9 0.00 0.00 0.00 61 1018.2
20260506211003 20 267 14.5 20.9 0.00 0.00 0.00 60 1018.3
20260506210503 21 252 16.1 20.9 0.00 0.00 0.00 59 1018.3
20260506210012 21 238 8.0 25.7 0.00 0.00 0.00 62 1018.4
20260506205504 20 239 11.3 25.7 0.00 0.00 0.00 62 1018.4
20260506205004 20 244 12.9 20.9 0.00 0.00 0.00 59 1018.4
20260506204510 20 232 8.0 19.3 0.00 0.00 0.00 60 1018.5
20260506204003 20 221 11.3 19.3 0.00 0.00 0.00 59 1018.5
20260506203502 20 230 9.7 20.9 0.00 0.00 0.00 60 1018.4
20260506203019 20 251 9.7 20.9 0.00 0.00 0.00 58 1018.5
20260506202503 21 288 11.3 20.9 0.00 0.00 0.00 60 1018.5
20260506202010 20 253 12.9 20.9 0.00 0.00 0.00 63 1018.6
20260506201512 20 275 9.7 24.1 0.00 0.00 0.00 63 1018.6
20260506201004 20 248 9.7 24.1 0.00 0.00 0.00 62 1018.6
20260506200503 20 242 12.9 24.1 0.00 0.00 0.00 61 1018.6
20260506200019 20 219 12.9 20.9 0.00 0.00 0.00 60 1018.6
20260506195503 20 248 12.9 20.9 0.00 0.00 0.00 62 1018.6
20260506195006 20 233 16.1 22.5 0.00 0.00 0.00 62 1018.7
20260506194507 21 323 11.3 22.5 0.00 0.00 0.00 61 1018.7
20260506194005 20 250 11.3 17.7 0.00 0.00 0.00 61 1018.8
20260506193509 20 254 11.3 19.3 0.00 0.00 0.00 64 1018.9
20260506193012 20 233 12.9 19.3 0.00 0.00 0.00 65 1018.8
20260506192503 20 283 14.5 20.9 0.00 0.00 0.00 64 1018.8
20260506192007 20 235 14.5 20.9 0.00 0.00 0.00 64 1018.8
20260506191512 20 296 14.5 20.9 0.00 0.00 0.00 65 1018.9
20260506191004 20 261 12.9 20.9 0.00 0.00 0.00 64 1018.8
20260506190504 20 277 12.9 20.9 0.00 0.00 0.00 62 1018.8
20260506190022 20 268 11.3 19.3 0.00 0.00 0.00 65 1018.8
20260506185501 20 271 12.9 19.3 0.00 0.00 0.00 65 1018.8
20260506185003 20 261 8.0 22.5 0.00 0.00 0.00 64 1018.8
20260506184503 20 266 11.3 22.5 0.00 0.00 0.00 65 1018.9
20260506184004 20 271 14.5 20.9 0.00 0.00 0.00 67 1018.9
20260506183502 20 265 11.3 20.9 0.00 0.00 0.00 67 1019.0
20260506183005 20 254 11.3 19.3 0.00 0.00 0.00 67 1019.0
20260506182501 19 221 9.7 22.5 0.00 0.00 0.00 66 1019.0
20260506182003 20 252 14.5 22.5 0.00 0.00 0.00 66 1019.0
20260506181503 19 270 12.9 20.9 0.00 0.00 0.00 65 1019.1
20260506181002 20 259 11.3 20.9 0.00 0.00 0.00 67 1019.1
20260506180507 20 240 9.7 20.9 0.00 0.00 0.00 65 1019.1
20260506180005 20 207 12.9 20.9 0.00 0.00 0.00 65 1019.1
20260506175503 20 250 6.4 22.5 0.00 0.00 0.00 65 1019.1
20260506175006 20 256 14.5 22.5 0.00 0.00 0.00 63 1019.2
20260506174504 20 232 9.7 14.5 0.00 0.00 0.00 64 1019.1
20260506174001 19 223 4.8 14.5 0.00 0.00 0.00 1019.2
20260506173503 -17 183 3.2 14.5 0.00 0.00 0.00 1019.1
20260506173004 19 244 8.0 14.5 0.00 0.00 0.00 1019.1
20260506172501 19 252 11.3 14.5 0.00 0.00 0.00 66 1019.1
20260506172002 19 249 3.2 14.5 0.00 0.00 0.00 66 1019.1
20260506171503 18 265 4.8 12.9 0.00 0.00 0.00 66 1019.0
20260506171003 18 266 8.0 12.9 0.00 0.00 0.00 65 1019.1
20260506170505 18 229 4.8 9.7 0.00 0.00 0.00 65 1019.0
20260506170003 18 241 1.6 9.7 0.00 0.00 0.00 68 1019.0
20260506165506 18 235 6.4 11.3 0.00 0.00 0.00 67 1019.0
20260506165003 17 258 4.8 14.5 0.00 0.00 0.00 67 1018.9
20260506164504 18 232 6.4 16.1 0.00 0.00 0.00 67 1019.0
20260506164005 18 231 6.4 16.1 0.00 0.00 0.00 67 1019.0
20260506163503 17 261 6.4 9.7 0.00 0.00 0.00 67 1019.1
20260506163008 18 190 1.6 9.7 0.00 0.00 0.00 67 1019.0
20260506162504 17 274 4.8 9.7 0.00 0.00 0.00 70 1019.0
20260506162003 18 167 1.6 12.9 0.00 0.00 0.00 66 1018.9
20260506161504 17 275 4.8 12.9 0.00 0.00 0.00 69 1018.9
20260506161004 17 225 1.6 8.0 0.00 0.00 0.00 70 1019.0
20260506160502 17 221 3.2 8.0 0.00 0.00 0.00 68 1018.9
20260506160006 17 307 1.6 4.8 0.00 0.00 0.00 70 1018.8
20260506155502 16 142 1.6 4.8 0.00 0.00 0.00 70 1018.8
20260506155003 16 238 1.6 4.8 0.00 0.00 0.00 69 1018.8
20260506154503 16 337 3.2 4.8 0.00 0.00 0.00 70 1018.7
20260506154004 15 13 1.6 8.0 0.00 0.00 0.00 70 1018.7
20260506153503 15 59 3.2 9.7 0.00 0.00 0.00 71 1018.8
20260506153008 15 46 4.8 11.3 0.00 0.00 0.00 72 1018.9
20260506152506 15 50 4.8 12.9 0.00 0.00 0.00 72 1018.9
20260506152004 15 46 4.8 14.5 0.00 0.00 0.00 73 1018.9
20260506151504 14 68 6.4 14.5 0.00 0.00 0.00 74 1018.9
20260506151005 14 59 6.4 11.3 0.00 0.00 0.00 74 1018.9
20260506150504 14 52 6.4 14.5 0.00 0.00 0.00 75 1018.9
20260506150003 13 35 4.8 14.5 0.00 0.00 0.00 76 1018.9
20260506145508 13 56 8.0 14.5 0.00 0.00 0.00 76 1018.9
20260506145003 13 55 6.4 12.9 0.00 0.00 0.00 77 1018.9
20260506144502 13 62 6.4 14.5 0.00 0.00 0.00 78 1018.8
20260506144002 13 48 8.0 14.5 0.00 0.00 0.00 78 1018.8
20260506143502 12 53 6.4 14.5 0.00 0.00 0.00 79 1018.7
20260506143005 12 24 6.4 14.5 0.00 0.00 0.00 79 1018.7
20260506142503 12 71 8.0 14.5 0.00 0.00 0.00 80 1018.7
20260506142003 12 23 6.4 12.9 0.00 0.00 0.00 81 1018.6
20260506141503 12 56 6.4 12.9 0.00 0.00 0.00 82 1018.6
20260506141006 11 57 4.8 14.5 0.00 0.00 0.00 83 1018.6
20260506140505 11 62 6.4 14.5 0.00 0.00 0.00 83 1018.5
20260506140003 11 54 6.4 9.7 0.00 0.00 0.00 84 1018.5
20260506135506 11 53 4.8 12.9 0.00 0.00 0.00 85 1018.5
20260506135005 10 48 6.4 12.9 0.00 0.00 0.00 85 1018.5
20260506134504 10 45 6.4 9.7 0.00 0.00 0.00 85 1018.4
20260506134005 10 55 4.8 9.7 0.00 0.00 0.00 86 1018.4
20260506133503 10 46 3.2 8.0 0.00 0.00 0.00 85 1018.5
20260506133004 10 67 4.8 9.7 0.00 0.00 0.00 85 1018.5
20260506132508 10 69 4.8 9.7 0.00 0.00 0.00 85 1018.5
20260506132002 10 51 3.2 11.3 0.00 0.00 0.00 84 1018.5
20260506131508 11 66 6.4 11.3 0.00 0.00 0.00 84 1018.5
20260506131004 11 56 3.2 6.4 0.00 0.00 0.00 84 1018.4
20260506130503 11 34 1.6 8.0 0.00 0.00 0.00 84 1018.3
20260506130018 11 59 4.8 8.0 0.00 0.00 0.00 84 1018.2
20260506125504 11 77 4.8 8.0 0.00 0.00 0.00 84 1018.1
20260506125003 11 71 4.8 9.7 0.00 0.00 0.00 83 1018.1
20260506124520 11 70 4.8 9.7 0.00 0.00 0.00 83 1018.0
20260506124006 11 53 3.2 8.0 0.00 0.00 0.00 83 1018.0
20260506123505 11 56 4.8 8.0 0.00 0.00 0.00 83 1018.1
20260506123022 11 53 4.8 16.1 0.00 0.00 0.00 83 1018.0
20260506122507 11 45 4.8 16.1 0.00 0.00 0.00 84 1017.9
20260506122003 11 49 3.2 8.0 0.00 0.00 0.00 83 1017.8
20260506121505 11 54 3.2 8.0 0.00 0.00 0.00 84 1017.7
20260506121003 11 40 4.8 8.0 0.00 0.00 0.00 84 1017.6
20260506120503 11 41 4.8 9.7 0.00 0.00 0.00 84 1017.6
20260506120021 11 33 6.4 9.7 0.00 0.00 0.00 84 1017.6
20260506115504 11 38 3.2 8.0 0.00 0.00 0.00 84 1017.6
20260506115003 11 65 4.8 12.9 0.00 0.00 0.00 85 1017.6
20260506114511 11 36 6.4 12.9 0.00 0.00 0.00 85 1017.6
20260506114004 11 53 6.4 12.9 0.00 0.00 0.00 85 1017.6
20260506113502 11 46 6.4 11.3 0.00 0.00 0.00 85 1017.6
20260506113021 11 38 6.4 14.5 0.00 0.00 0.00 85 1017.6
20260506112508 11 63 8.0 14.5 0.00 0.00 0.00 84 1017.5
20260506112003 11 45 6.4 12.9 0.00 0.00 0.00 84 1017.5
20260506111523 11 62 6.4 12.9 0.00 0.00 0.00 84 1017.6
20260506111004 12 49 6.4 14.5 0.00 0.00 0.00 84 1017.6
20260506110504 12 53 6.4 14.5 0.00 0.00 0.00 85 1017.6
20260506110026 12 24 6.4 14.5 0.00 0.00 0.00 85 1017.7
20260506105504 12 36 9.7 14.5 0.00 0.00 0.00 85 1017.7
20260506105003 11 44 6.4 14.5 0.00 0.00 0.00 85 1017.6
20260506104512 11 40 6.4 11.3 0.00 0.00 0.00 86 1017.7
20260506104003 11 31 6.4 11.3 0.00 0.00 0.00 86 1017.6
20260506103508 11 69 6.4 11.3 0.00 0.00 0.00 86 1017.5
20260506103016 11 40 4.8 11.3 0.00 0.00 0.00 86 1017.6
20260506102507 11 44 4.8 12.9 0.00 0.00 0.00 86 1017.5
20260506102004 11 65 6.4 12.9 0.00 0.00 0.00 86 1017.5
20260506101522 11 37 8.0 14.5 0.00 0.00 0.00 86 1017.6
20260506101007 11 36 6.4 14.5 0.00 0.00 0.00 86 1017.6
20260506100504 11 61 6.4 11.3 0.00 0.00 0.00 86 1017.6
20260506100023 11 62 6.4 14.5 0.00 0.00 0.00 86 1017.7
20260506095505 11 59 4.8 14.5 0.00 0.00 0.00 86 1017.6
20260506095002 11 51 6.4 11.3 0.00 0.00 0.00 86 1017.6
20260506094528 11 59 4.8 11.3 0.00 0.00 0.00 86 1017.7
20260506094005 11 57 4.8 9.7 0.00 0.00 0.00 85 1017.7
20260506093505 11 66 3.2 6.4 0.00 0.00 0.00 85 1017.9
20260506093014 12 71 3.2 4.8 0.00 0.00 0.00 85 1017.8
20260506092506 12 46 3.2 4.8 0.00 0.00 0.00 85 1017.9
20260506092009 12 40 1.6 4.8 0.00 0.00 0.00 85 1017.9
20260506091521 12 49 3.2 4.8 0.00 0.00 0.00 85 1018.0
20260506091006 12 46 1.6 4.8 0.00 0.00 0.00 85 1018.0
20260506090507 12 53 1.6 6.4 0.00 0.00 0.00 85 1018.0
20260506090027 11 62 3.2 6.4 0.00 0.00 0.00 85 1018.0
20260506085503 12 63 3.2 8.0 0.00 0.00 0.00 85 1018.1
20260506085003 12 75 4.8 8.0 0.00 0.00 0.00 85 1018.1
20260506084511 12 51 3.2 6.4 0.00 0.00 0.00 85 1018.2
20260506084004 12 51 3.2 6.4 0.00 0.00 0.00 84 1018.2
20260506083504 12 50 3.2 8.0 0.00 0.00 0.00 84 1018.1
20260506083005 12 72 4.8 8.0 0.00 0.00 0.00 84 1018.1
20260506082504 12 92 3.2 6.4 0.00 0.00 0.00 85 1018.1
20260506082005 12 86 4.8 8.0 0.00 0.00 0.00 85 1018.1
20260506081505 12 55 3.2 8.0 0.00 0.00 0.00 85 1018.1
20260506081004 12 37 4.8 8.0 0.00 0.00 0.00 85 1018.2
20260506080503 12 51 4.8 8.0 0.00 0.00 0.00 85 1018.2
20260506073504 12 61 4.8 11.3 0.00 0.00 0.00 85 1018.0
20260506073004 12 73 4.8 11.3 0.00 0.00 0.00 85 1018.0
20260506072506 12 74 3.2 9.7 0.00 0.00 0.00 85 1017.9
20260506072003 12 76 6.4 9.7 0.00 0.00 0.00 85 1017.9
20260506071504 12 68 4.8 9.7 0.00 0.00 0.00 85 1017.9
20260506071008 12 51 4.8 9.7 0.00 0.00 0.00 85 1017.8
20260506070504 12 67 6.4 9.7 0.00 0.00 0.00 85 1017.8